Location: Krasnoyarskiy Pitomnik
(51.1333°N, 71.6167°E)
Time: 10:16:05
(UTC+00:00)

ADEOS II - Pass Details

Date: 22 October 2021
Orbit: 799 x 800 km, 98.6° (Epoch: 06 December)

Event Time Altitude Azimuth Distance (km) Brightness Sun altitude
Rises 21:24:03 0° 16° (NNE) 3,324 5.9 -40.4°
Reaches altitude 10° 21:26:24 10° 18° (NNE) 2,389 5.1 -40.1°
Enters shadow 21:27:42 18° 21° (NNE) 1,888 4.4 -39.9°
